TimeCST,TemperatureF,Dew PointF,Humidity,Sea Level PressureIn,VisibilityMPH,Wind Direction,Wind SpeedMPH,Gust SpeedMPH,PrecipitationIn,Events,Conditions,WindDirDegrees,DateUTC
12:15 AM,28.4,21.2,74,30.24,10.0,Calm,Calm,-,N/A,,Clear,0,2013-03-03 06:15:00
12:35 AM,32.0,19.4,60,30.24,10.0,Calm,Calm,-,N/A,,Clear,0,2013-03-03 06:35:00
12:55 AM,32.0,21.2,64,30.23,10.0,Calm,Calm,-,N/A,,Clear,0,2013-03-03 06:55:00
1:35 AM,30.2,21.2,69,30.23,10.0,Calm,Calm,-,N/A,,Clear,0,2013-03-03 07:35:00
1:55 AM,28.4,21.2,74,30.23,10.0,Calm,Calm,-,N/A,,Clear,0,2013-03-03 07:55:00
2:15 AM,28.4,19.4,69,30.24,10.0,Calm,Calm,-,N/A,,Clear,0,2013-03-03 08:15:00
2:35 AM,28.4,19.4,69,30.23,10.0,Calm,Calm,-,N/A,,Clear,0,2013-03-03 08:35:00
3:15 AM,26.6,21.2,80,30.22,10.0,Calm,Calm,-,N/A,,Clear,0,2013-03-03 09:15:00
3:35 AM,28.4,21.2,74,30.21,10.0,Calm,Calm,-,N/A,,Clear,0,2013-03-03 09:35:00
3:55 AM,26.6,21.2,80,30.21,10.0,Calm,Calm,-,N/A,,Clear,0,2013-03-03 09:55:00
4:15 AM,26.6,21.2,80,30.20,10.0,Calm,Calm,-,N/A,,Clear,0,2013-03-03 10:15:00
4:35 AM,26.6,21.2,80,30.21,10.0,Calm,Calm,-,N/A,,Clear,0,2013-03-03 10:35:00
4:55 AM,28.4,21.2,74,30.20,10.0,Calm,Calm,-,N/A,,Clear,0,2013-03-03 10:55:00
5:15 AM,26.6,21.2,80,30.21,10.0,Calm,Calm,-,N/A,,Clear,0,2013-03-03 11:15:00
6:15 AM,28.4,21.2,74,30.21,10.0,Calm,Calm,-,N/A,,Clear,0,2013-03-03 12:15:00
6:38 AM,26.6,19.4,74,30.21,10.0,Calm,Calm,-,N/A,,Clear,0,2013-03-03 12:38:00
6:55 AM,26.6,21.2,80,30.23,10.0,Calm,Calm,-,N/A,,Clear,0,2013-03-03 12:55:00
6:58 AM,24.8,19.4,80,30.23,10.0,Calm,Calm,-,N/A,,Clear,0,2013-03-03 12:58:00
7:15 AM,26.6,23.0,86,30.24,10.0,NE,3.5,-,N/A,,Clear,50,2013-03-03 13:15:00
7:35 AM,28.4,24.8,86,30.23,10.0,ENE,5.8,-,N/A,,Clear,60,2013-03-03 13:35:00
7:55 AM,30.2,26.6,86,30.23,10.0,ENE,3.5,-,N/A,,Clear,60,2013-03-03 13:55:00
8:39 AM,37.4,24.8,60,30.21,10.0,SE,3.5,-,N/A,,Clear,130,2013-03-03 14:39:00
8:55 AM,37.4,24.8,60,30.21,10.0,South,8.1,-,N/A,,Clear,170,2013-03-03 14:55:00
9:15 AM,41.0,23.0,49,30.22,10.0,South,10.4,-,N/A,,Clear,170,2013-03-03 15:15:00
9:35 AM,42.8,23.0,46,30.21,10.0,South,9.2,-,N/A,,Clear,180,2013-03-03 15:35:00
9:55 AM,44.6,23.0,43,30.21,10.0,South,9.2,-,N/A,,Clear,180,2013-03-03 15:55:00
10:15 AM,46.4,23.0,40,30.20,10.0,South,8.1,-,N/A,,Clear,180,2013-03-03 16:15:00
10:35 AM,48.2,23.0,37,30.19,10.0,South,6.9,-,N/A,,Clear,170,2013-03-03 16:35:00
10:55 AM,50.0,23.0,35,30.17,10.0,SSE,9.2,-,N/A,,Clear,160,2013-03-03 16:55:00
11:15 AM,51.8,21.2,30,30.17,10.0,South,10.4,-,N/A,,Clear,190,2013-03-03 17:15:00
11:35 AM,51.8,21.2,30,30.15,10.0,SSE,8.1,17.3,N/A,,Clear,160,2013-03-03 17:35:00
11:55 AM,53.6,23.0,30,30.14,10.0,SSE,12.7,16.1,N/A,,Clear,160,2013-03-03 17:55:00
12:15 PM,55.4,23.0,29,30.12,10.0,SSE,11.5,-,N/A,,Clear,160,2013-03-03 18:15:00
12:35 PM,55.4,23.0,29,30.10,10.0,SSE,10.4,17.3,N/A,,Clear,160,2013-03-03 18:35:00
12:55 PM,57.2,24.8,29,30.09,10.0,SSE,11.5,16.1,N/A,,Clear,150,2013-03-03 18:55:00
1:15 PM,59.0,26.6,29,30.06,10.0,South,13.8,19.6,N/A,,Clear,180,2013-03-03 19:15:00
1:35 PM,60.8,26.6,27,30.04,10.0,South,16.1,19.6,N/A,,Clear,180,2013-03-03 19:35:00
1:55 PM,60.8,26.6,27,30.03,10.0,SSE,13.8,18.4,N/A,,Clear,160,2013-03-03 19:55:00
2:35 PM,62.6,28.4,27,30.01,10.0,SSE,13.8,18.4,N/A,,Clear,160,2013-03-03 20:35:00
2:55 PM,62.6,26.6,26,30.00,10.0,South,11.5,19.6,N/A,,Clear,190,2013-03-03 20:55:00
3:35 PM,62.6,28.4,27,29.98,10.0,SSW,11.5,16.1,N/A,,Clear,200,2013-03-03 21:35:00
3:55 PM,64.4,28.4,26,29.97,10.0,South,13.8,17.3,N/A,,Clear,180,2013-03-03 21:55:00
4:15 PM,64.4,28.4,26,29.96,10.0,SSE,12.7,16.1,N/A,,Clear,150,2013-03-03 22:15:00
4:35 PM,64.4,28.4,26,29.95,10.0,SSE,11.5,16.1,N/A,,Clear,160,2013-03-03 22:35:00
4:55 PM,64.4,28.4,26,29.95,10.0,SSE,11.5,17.3,N/A,,Clear,160,2013-03-03 22:55:00
5:15 PM,62.6,28.4,27,29.94,10.0,SSE,11.5,-,N/A,,Clear,150,2013-03-03 23:15:00
5:35 PM,62.6,28.4,27,29.94,10.0,SE,10.4,-,N/A,,Clear,140,2013-03-03 23:35:00
5:55 PM,60.8,30.2,31,29.93,10.0,SE,12.7,-,N/A,,Clear,140,2013-03-03 23:55:00
6:15 PM,59.0,30.2,34,29.92,10.0,SE,12.7,-,N/A,,Clear,140,2013-03-04 00:15:00
6:35 PM,59.0,30.2,34,29.92,10.0,SE,9.2,-,N/A,,Clear,140,2013-03-04 00:35:00
6:55 PM,55.4,30.2,38,29.92,10.0,SE,8.1,-,N/A,,Clear,140,2013-03-04 00:55:00
7:15 PM,55.4,30.2,38,29.92,10.0,SE,8.1,-,N/A,,Clear,140,2013-03-04 01:15:00
7:35 PM,55.4,30.2,38,29.92,10.0,SE,9.2,-,N/A,,Clear,140,2013-03-04 01:35:00
8:15 PM,53.6,32.0,44,29.92,10.0,SE,10.4,-,N/A,,Clear,130,2013-03-04 02:15:00
8:35 PM,53.6,32.0,44,29.92,10.0,SE,12.7,16.1,N/A,,Clear,130,2013-03-04 02:35:00
8:55 PM,53.6,32.0,44,29.92,10.0,SE,10.4,-,N/A,,Clear,130,2013-03-04 02:55:00
9:15 PM,53.6,32.0,44,29.92,10.0,SE,11.5,-,N/A,,Clear,130,2013-03-04 03:15:00
9:35 PM,53.6,32.0,44,29.92,10.0,SE,10.4,-,N/A,,Clear,130,2013-03-04 03:35:00
9:55 PM,51.8,32.0,47,29.92,10.0,ESE,10.4,-,N/A,,Clear,120,2013-03-04 03:55:00
10:15 PM,51.8,32.0,47,29.91,10.0,SE,12.7,-,N/A,,Clear,130,2013-03-04 04:15:00
10:35 PM,51.8,32.0,47,29.89,10.0,SE,10.4,-,N/A,,Clear,130,2013-03-04 04:35:00
10:55 PM,51.8,32.0,47,29.88,10.0,SE,11.5,-,N/A,,Clear,140,2013-03-04 04:55:00
11:15 PM,53.6,32.0,44,29.87,10.0,SSE,16.1,21.9,N/A,,Clear,150,2013-03-04 05:15:00
11:35 PM,53.6,32.0,44,29.86,10.0,SSE,15.0,21.9,N/A,,Clear,150,2013-03-04 05:35:00
11:55 PM,53.6,32.0,44,29.85,10.0,SSE,16.1,20.7,N/A,,Clear,160,2013-03-04 05:55:00